Regional Weather Roundup
Issued by NWS Nashville, TN

Home | Current Version | Previous Version | Text Only | Print | Product List | Glossary On
Versions: 1 2 3 4 5 6 7 8 9 10 11 12 13 14 15 16 17 18 19 20 21 22 23 24 25 26 27 28 29 30 31 32 33 34 35 36 37 38 39 40 41 42 43 44 45 46 47 48 49 50
000
ASUS44 KOHX 160815
RWROHX
MIDDLE TENNESSEE HOURLY WEATHER ROUNDUP
NATIONAL WEATHER SERVICE NASHVILLE TN
300 AM CDT WED APR 16 2014

NOTE: "FAIR" INDICATES FEW OR NO CLOUDS BELOW 12,000 FEET WITH
NO SIGNIFICANT WEATHER AND/OR OBSTRUCTIONS TO VISIBILITY.

* THESE REPORTS ARE NOT UNDER NWS QUALITY CONTROL AND MAY NOT
  REPORT WEATHER SUCH AS PRECIPITATION AND FOG.


TNZ005>011-023>034-057-059-062>066-078-080-160900
...NORTHERN MIDDLE TENNESSEE...

CITY           SKY/WX    TMP DP  RH WIND       PRES   REMARKS
BAXTER*          N/A     32  23  69 CALM        N/A
BRENTWOOD*       N/A     27  21  80 CALM        N/A
CASTALIAN SPRG   N/A     28  27  93 CALM        N/A
CLARKSVILLE    CLEAR     29  26  89 CALM      30.30R
COLUMBIA       CLEAR     28  27  93 CALM      30.25S
CROSSVILLE     CLEAR     30  21  69 NE7       30.22S WCI  23
GALLATIN         N/A     31  22  69 N6        30.29R WCI  25
DICKSON        CLEAR     32  21  64 NE5       30.26S WCI  27
FAIRFIELD GLAD   N/A     28  25  86 N2          N/A
GLADEVILLE*      N/A     30  23  74 CALM        N/A
GOODLETTSVILLE   N/A     34  25  69 CALM        N/A
JOELTON*         N/A     28  25  86 CALM        N/A
KINGSTON SPGS*   N/A     28  25  86 CALM        N/A
LAFAYETTE*       N/A     30  19  64 NE2         N/A
MONTEREY         N/A     27  25  93 CALM        N/A
MOUNT JULIET*    N/A     34  25  69 CALM        N/A
NASHVILLE      CLEAR     34  23  64 N5        30.29R WCI  30
OLD HICKORY*     N/A     36  28  75 MISG        N/A
PEGRAM*          N/A    N/A N/A N/A CALM        N/A
PORTLAND       CLEAR     28  25  86 CALM      30.28R
SMYRNA         CLEAR     34  22  61 NE7       30.30R WCI  28
SPRINGFIELD*     N/A     30  18  59 MISG        N/A
WHITE BLUFF*     N/A     30  25  80 CALM        N/A
$$
TNZ056-058-060-061-075>077-079-093>097-160900
...SOUTHERN MIDDLE TENNESSEE...

CITY           SKY/WX    TMP DP  RH WIND       PRES   REMARKS
BELLEVUE*        N/A     30  27  86 CALM        N/A
CULLEOKA*        N/A     28  25  86 CALM        N/A
EAGLEVILLE*      N/A    N/A N/A N/A CALM        N/A
FAYETTEVILLE   CLEAR     30  22  72 N9        30.23F WCI  22
HOHENWALD*       N/A     28  25  86 CALM        N/A
LEWISBURG      CLEAR     29  25  85 CALM      30.26S
MANCHESTER*      N/A     30  25  80 CALM        N/A
MCMINNVILLE      N/A     28  24  85 CALM      30.25R
MOUNT PLEASANT   N/A     32  27  80 CALM        N/A
MURFREESBORO   CLEAR     31  25  78 CALM      30.28R
SHELBYVILLE    CLEAR     28  25  86 CALM      30.27S
SPRING HILL*     N/A     32  21  64 CALM        N/A
TULLAHOMA      CLEAR     30  21  69 N5        30.24F WCI  25
WINCHESTER     CLEAR     27  25  93 CALM      30.25R
$$


...KEY TO REMARKS...
VSB - VISIBILITY IN MILES
WCI - WIND CHILL INDEX
HX  - HEAT INDEX




USA.gov is the U.S. government's official web portal to all federal, state and local government web resources and services.